EHI
6 6 5 4 3 3 4 5 4 4 3 3 3 2 2 1 1 2 1 0 1 2 2 1 0 0 0 0 0 0 1 2 1 0 0 0 0 1 0 0 1 1 2
6 5 5 4 3 2 2 3 4 4 3 3 3 2 1 1 1 2 2 1 1 1 1 0 0 0 0 0 0 0 0 1 0 0 0 0 0 1 0 1 1 2 2
5 4 3 4 3 1 1 2 4 4 3 3 2 1 0 0 1 2 3 3 2 1 1 0 0 0 0 0 0 0 0 1 1 0 0 0 0 0 0 1 3 3 3
5 4 3 4 4 2 2 3 4 5 4 3 3 1 0 0 1 2 2 3 3 2 1 0 0 0 0 0 0 1 1 1 1 0 0 0 0 0 1 2 4 4 3
6 5 5 5 4 2 2 3 4 5 5 4 2 1 0 0 1 1 1 1 2 1 1 0 0 0 0 1 2 2 2 1 1 0 0 0 0 0 1 2 3 3 3
5 5 5 5 3 1 1 2 3 5 5 3 1 1 0 0 0 0 0 0 0 0 0 0 0 0 0 2 3 3 2 0 0 0 0 0 0 0 0 1 3 3 3
2 4 4 4 2 1 0 1 3 4 3 1 0 0 0 1 1 0 0 0 0 0 0 0 0 0 0 1 3 3 2 1 0 0 0 0 0 1 1 1 2 3 2
1 3 4 3 1 0 0 0 2 3 3 1 0 0 1 2 2 1 0 0 0 0 0 0 0 0 0 0 1 2 3 2 0 0 0 0 0 1 2 2 3 3 3
1 2 2 1 0 0 0 0 1 2 2 1 0 1 2 3 3 2 0 0 0 0 0 0 0 0 0 0 0 1 2 1 0 0 0 0 0 1 2 3 3 4 5
1 1 1 0 0 0 0 1 2 3 2 1 1 2 3 3 2 1 0 0 0 0 0 1 1 0 0 0 0 0 0 0 0 0 0 0 0 1 2 2 3 4 6
1 1 1 0 0 0 1 2 4 4 2 1 1 3 3 1 1 0 0 0 0 0 1 2 1 0 0 0 0 0 0 0 0 0 0 0 0 0 1 1 2 3 4
1 1 1 0 0 0 1 3 4 4 3 2 2 2 2 1 0 1 1 1 0 0 1 1 1 0 0 0 0 0 0 0 0 0 0 0 0 0 0 0 0 1 2
0 0 0 0 0 1 2 3 3 3 3 2 2 2 2 2 2 2 2 1 0 0 0 0 0 0 0 0 0 0 0 0 0 0 0 0 0 0 0 0 0 0 0
0 0 0 0 0 2 3 3 2 2 2 3 2 2 2 3 3 3 2 1 0 0 0 0 0 0 0 0 0 0 0 0 0 0 0 0 0 0 0 0 0 0 0
0 0 0 0 0 1 2 2 1 1 1 2 1 2 2 2 2 2 1 0 0 0 0 0 0 0 0 0 0 0 0 0 0 0 0 0 0 0 0 0 0 0 0
0 0 0 0 0 0 1 1 0 1 1 1 1 1 1 0 1 1 1 0 0 0 0 0 0 0 0 0 0 0 0 0 0 0 0 0 0 0 0 0 0 0 0
0 0 0 0 0 0 0 0 0 0 1 2 1 0 0 0 0 0 0 0 0 0 0 0 0 0 0 0 0 0 0 0 0 0 0 0 0 0 0 0 0 0 0
0 0 0 0 0 0 0 0 0 0 1 2 2 1 0 0 0 0 0 0 0 0 0 0 0 0 0 0 0 0 0 0 0 0 0 0 0 0 0 0 0 0 0
0 0 0 1 1 1 1 2 1 0 1 2 2 1 1 0 0 0 0 0 0 0 0 0 0 0 0 0 0 0 0 0 0 0 0 0 0 0 0 0 0 0 0
0 1 2 2 3 4 5 5 3 1 0 2 3 3 2 1 0 0 0 0 0 0 0 0 0 0 0 0 0 0 0 0 0 0 0 0 0 0 0 0 0 0 0
0 1 3 3 4 6 8 7 5 2 1 2 3 3 2 1 0 0 0 0 0 0 0 0 0 0 0 0 0 0 0 0 0 0 0 0 0 0 0 0 0 0 0
1 1 2 4 5 7 8 8 6 5 3 3 3 3 2 0 0 0 0 0 0 0 0 0 0 0 0 0 0 0 0 0 0 0 0 0 0 0 0 0 0 0 0
2 2 3 5 6 7 8 8 7 7 5 3 3 3 2 1 0 0 0 0 0 0 0 0 0 0 0 0 0 0 0 0 0 0 0 0 0 0 0 0 0 0 0
4 3 4 5 6 6 8 9 8 7 6 4 3 3 2 1 0 0 0 0 0 0 0 0 0 0 0 0 0 0 0 0 0 0 0 0 0 0 0 0 0 0 0
6 5 4 5 5 6 7 8 8 7 5 4 3 2 1 0 0 0 0 0 0 0 0 0 0 0 0 0 0 0 0 0 0 0 0 0 0 0 0 0 0 0 0
7 6 5 4 5 7 8 8 7 6 5 3 2 1 0 0 0 0 0 0 0 0 0 0 0 0 0 0 0 0 0 0 0 0 0 0 0 0 0 0 0 0 0
Wind_Speed
6 8 9 9 10 10 10 10 9 9 9 10 10 11 11 11 11 12 12 12 12 12 11 11 11 11 11 10 9 9 8 8 8 8 8 7 7 8 8 7 6 5 8
8 10 10 10 9 9 9 10 10 9 10 10 11 11 11 12 11 11 11 12 12 12 12 12 12 12 12 11 10 9 7 8 7 6 7 7 8 8 9 9 8 5 8
8 10 9 10 10 10 10 10 10 9 9 10 11 11 11 11 11 11 11 12 12 12 11 11 11 11 11 11 11 10 8 8 7 7 6 4 6 10 10 10 9 9 8
10 10 9 9 10 10 10 10 10 9 9 9 10 10 11 11 12 11 11 11 11 12 12 11 11 10 11 11 11 11 10 9 9 8 5 7 7 11 12 10 9 9 9
10 10 9 10 10 11 11 10 10 9 9 10 10 11 11 11 11 11 11 11 11 11 11 11 10 10 10 10 10 10 10 9 10 8 7 7 7 12 12 11 10 10 10
9 10 9 10 10 10 10 11 11 10 10 10 10 11 11 12 12 12 11 11 11 11 11 10 10 10 10 10 10 10 9 9 8 6 6 6 6 12 12 11 11 10 10
8 10 10 10 10 10 10 11 11 11 11 11 11 11 11 11 12 12 12 12 12 11 11 10 10 9 9 9 9 9 9 8 6 6 6 6 7 12 12 12 11 11 10
8 9 9 11 10 10 10 10 10 11 11 10 10 10 10 10 11 12 12 12 12 12 11 11 10 9 9 9 9 9 9 8 8 8 7 6 11 12 12 12 11 11 11
7 7 7 8 9 10 10 10 9 9 9 9 9 10 10 10 10 11 11 11 11 11 11 11 10 10 9 8 7 8 9 10 6 5 7 6 11 12 12 12 12 12 12
6 6 5 6 7 7 7 8 8 8 7 7 7 7 8 9 8 9 9 9 9 10 9 9 9 8 8 7 7 8 9 8 6 6 5 7 13 12 12 12 12 12 12
5 5 5 5 5 6 5 6 6 6 5 4 4 5 4 3 3 4 7 8 7 7 7 7 6 6 5 4 5 6 6 4 6 5 5 10 12 12 12 12 12 12 11
4 4 4 4 5 5 4 4 2 3 3 2 2 3 2 2 3 5 5 6 5 4 4 4 4 3 2 2 3 4 3 5 5 5 6 12 12 12 12 11 11 11 11
4 4 4 4 4 5 3 3 1 1 1 1 2 3 2 2 2 3 2 2 2 2 1 1 1 1 2 3 3 3 4 5 4 4 6 12 12 12 12 12 11 11 10
4 3 3 3 4 4 3 2 2 1 1 1 1 3 2 2 2 2 2 2 1 1 2 2 2 3 4 4 4 5 5 4 4 4 5 11 11 11 11 11 10 10 10
5 4 3 3 4 4 3 2 3 2 1 2 2 2 3 2 2 2 2 1 2 1 2 2 2 3 4 4 5 5 5 5 5 5 4 10 10 10 10 10 9 9 9
4 5 4 3 4 4 3 2 2 2 2 2 2 2 2 2 2 2 2 2 2 1 2 2 3 3 3 3 4 5 5 5 5 5 4 6 10 10 11 10 9 9 9
4 5 4 3 3 4 3 2 2 2 3 2 2 2 3 2 2 2 2 2 1 2 3 3 4 3 3 3 4 5 4 4 4 4 4 3 5 9 10 11 10 9 9
5 5 4 3 3 4 3 3 2 3 3 2 2 2 2 2 3 2 2 2 2 2 2 2 2 3 3 3 3 3 3 3 3 3 3 3 3 4 7 10 10 10 10
5 5 5 3 3 4 3 3 3 3 3 2 2 2 3 3 3 3 2 2 2 2 2 2 3 2 2 2 2 2 2 2 2 3 3 4 3 3 3 6 9 9 9
4 5 5 3 3 3 2 2 2 2 2 2 2 2 2 2 3 3 2 2 2 2 2 2 2 2 1 1 2 2 1 1 2 2 2 3 2 3 3 3 3 5 7
4 4 5 4 3 3 2 2 2 1 1 2 2 2 2 2 2 2 2 2 2 1 1 2 2 1 1 1 2 2 1 1 2 1 1 2 2 2 2 2 2 2 2
3 3 4 4 3 3 2 1 1 1 1 2 2 2 2 2 2 1 2 2 1 1 2 2 2 1 1 1 1 1 1 2 2 1 1 1 1 1 1 2 2 2 2
3 3 3 3 4 3 3 2 1 1 1 2 1 1 1 2 2 2 1 1 1 1 1 1 1 1 0 1 1 1 1 0 1 1 0 1 1 1 0 1 2 2 3
3 3 3 3 3 2 3 2 2 1 1 0 1 1 1 1 1 2 2 1 1 1 1 1 1 1 1 0 1 1 1 2 1 1 2 1 1 1 0 1 1 2 2
3 3 2 2 3 2 2 3 2 1 0 1 1 1 1 1 1 2 1 1 1 1 1 1 1 1 1 0 0 1 1 0 0 1 1 1 1 1 0 1 1 1 2
4 3 2 2 2 2 2 2 2 1 1 1 1 1 0 0 0 0 1 1 1 1 1 1 1 0 0 0 0 0 0 0 0 0 1 1 1 2 1 1 1 1 1
Wind_Direction
77 82 65 57 53 49 48 50 49 54 56 59 61 59 60 63 64 61 59 59 59 59 60 57 54 52 52 53 54 53 59 66 69 68 67 66 67 76 83 80 83 89 83
86 89 71 60 58 55 54 55 53 58 59 61 63 63 60 62 62 61 60 59 59 60 60 58 56 53 54 54 53 51 55 64 62 62 65 63 69 80 86 83 80 83 82
90 92 77 63 61 61 60 58 57 62 64 65 66 66 65 64 63 61 59 60 59 60 61 61 59 56 56 55 52 50 56 63 53 53 51 58 73 79 89 85 82 81 82
89 86 77 69 65 63 61 59 59 62 68 72 74 72 69 67 64 63 60 58 59 60 60 60 60 57 57 53 50 49 53 52 49 50 50 53 64 80 84 83 80 77 78
93 92 85 75 72 67 63 59 59 64 71 75 76 75 72 69 68 66 64 61 59 58 59 60 60 59 58 54 50 46 46 50 53 52 53 55 62 75 77 77 76 73 77
99 100 97 87 79 73 69 65 61 67 75 77 78 78 75 70 70 69 66 63 62 60 58 56 56 57 58 55 50 44 44 50 54 58 59 60 66 74 74 72 72 72 75
98 103 106 99 90 83 78 74 70 72 81 80 80 81 79 75 71 70 65 64 63 59 55 53 55 56 56 53 47 42 40 48 66 63 63 64 69 75 74 72 71 73 74
99 105 113 113 104 94 88 83 80 79 83 83 83 83 82 79 75 73 68 66 64 60 54 52 51 56 57 51 44 37 30 38 64 68 65 65 72 73 72 71 70 72 74
95 105 113 125 121 109 100 95 92 89 88 88 85 83 85 84 81 76 71 70 69 65 61 59 56 54 53 47 39 32 31 41 55 61 72 69 74 72 70 71 71 71 73
102 105 110 119 123 124 117 108 108 103 97 95 95 91 89 88 87 83 77 74 73 69 66 65 64 59 53 44 34 30 31 36 53 55 65 73 74 73 72 71 69 70 72
93 106 109 111 113 113 118 118 125 120 119 114 112 108 103 99 100 89 85 84 77 74 71 70 67 65 57 51 36 31 36 58 58 55 60 75 75 73 72 71 69 71 72
88 96 100 112 111 114 109 119 126 122 132 135 114 118 113 91 83 89 103 93 84 75 72 70 64 63 47 54 53 48 55 62 62 60 65 75 74 74 72 70 70 70 72
97 87 90 100 111 113 105 109 101 98 120 107 104 109 97 91 90 84 96 97 89 79 47 64 50 24 48 54 63 67 61 61 63 58 63 73 72 71 68 66 71 72 73
104 99 95 95 103 104 99 103 108 102 104 91 74 91 88 79 84 89 81 72 59 38 27 34 33 38 45 45 52 66 67 69 74 69 66 72 71 68 65 63 68 70 72
113 105 91 92 94 98 92 88 96 97 91 86 62 70 87 90 89 89 80 71 57 41 33 22 49 44 40 37 47 54 63 69 80 75 67 72 72 67 63 57 65 70 73
112 102 86 71 83 90 87 78 82 99 85 79 69 67 78 83 75 84 78 71 59 42 37 35 49 50 49 42 46 49 56 63 71 82 80 69 68 65 63 59 65 71 73
117 111 108 102 96 101 96 98 84 76 85 79 60 62 61 71 77 74 70 63 56 49 44 38 42 41 49 50 49 48 45 57 68 78 85 86 75 68 69 64 65 71 72
117 113 110 106 95 91 85 83 82 77 76 80 63 42 54 68 72 63 61 52 47 52 46 43 44 39 39 39 41 47 46 51 58 72 80 84 84 79 74 73 67 66 67
123 119 115 104 102 91 85 81 70 79 72 71 68 48 36 48 64 71 61 50 47 47 44 38 46 42 41 35 41 56 51 59 51 59 69 78 88 96 91 86 78 72 69
121 120 119 120 119 105 90 85 78 73 80 78 73 56 43 38 52 70 72 58 60 55 46 39 39 36 55 39 50 59 52 84 62 58 64 69 74 92 96 96 91 78 72
114 117 125 129 116 107 92 79 88 70 73 80 79 76 55 48 53 69 62 53 55 59 63 69 58 32 32 42 62 38 2 48 83 85 72 76 65 79 102 110 120 105 84
109 114 117 114 105 103 99 92 108 111 84 89 68 59 48 46 41 65 79 79 65 65 57 59 69 45 1 37 87 87 29 9 360 98 90 92 86 79 83 106 104 107 109
113 110 112 106 106 112 114 98 77 70 58 63 66 63 43 48 36 29 56 87 105 98 87 82 98 82 16 352 42 96 111 157 318 346 103 110 92 78 60 109 102 94 98
121 118 111 108 101 107 118 111 108 105 96 112 109 99 64 57 43 46 29 50 67 86 104 104 85 86 101 315 337 12 114 134 131 330 321 18 101 131 138 83 90 94 92
124 112 110 113 111 111 121 128 134 127 115 85 84 88 91 71 63 61 30 10 55 92 107 83 70 64 113 162 346 349 356 28 131 150 268 317 331 302 180 138 116 115 106
121 122 124 121 113 114 119 131 144 144 109 89 73 97 102 106 85 84 62 17 34 67 91 97 102 85 19 346 20 48 81 132 290 200 217 261 274 276 261 146 133 130 135